Location: Ferris
(32.5340°N, 96.6656°W)
Time: 10:22:55
(UTC+00:00)

CBERS-1 - Pass Details

Date: 11 February 2026
Orbit: 766 x 771 km, 98.9° (Epoch: 8 March)

Event Time Altitude Azimuth Distance (km) Brightness Sun altitude
Rises 12:25:02 0° 14° (NNE) 3,244 7.3 -10.7°
Reaches altitude 10° 12:27:21 10° 15° (NNE) 2,315 6.6 -10.2°
Maximum altitude 12:32:27 81° 103° (ESE) 783 4.2 -9.2°
Drops below altitude 10° 12:37:33 10° 191° (S) 2,304 6.5 -8.1°
Sets 12:39:50 0° 192° (SSW) 3,228 7.2 -7.6°
